| time (UTC) | temp F | wind direction | speed knots | gust knots | rain 1hr in | rain 24hr in | rain mn in | humidity % | barometer mb |
| 20260906122933 | 75 | 315 | 0.0 | 0.0 | 0.00 | 0.00 | 0.00 | 89 | 1011.9 |
| 20260906122428 | 75 | 117 | 0.0 | 0.0 | 0.00 | 0.00 | 0.00 | 90 | 1011.9 |
| 20260906121925 | 74 | 4 | 0.0 | 1.7 | 0.00 | 0.00 | 0.00 | 91 | 1011.9 |
| 20260906121421 | 74 | 242 | 0.0 | 0.0 | 0.00 | 0.00 | 0.00 | 92 | 1011.7 |
| 20260906120917 | 74 | 269 | 0.0 | 0.9 | 0.00 | 0.00 | 0.00 | 92 | 1011.7 |
| 20260906120412 | 73 | 15 | 0.0 | 0.9 | 0.00 | 0.00 | 0.00 | 92 | 1011.5 |
| 20260906115908 | 73 | 299 | 0.0 | 0.9 | 0.00 | 0.00 | 0.00 | 93 | 1011.4 |
| 20260906115404 | 73 | 256 | 0.0 | 0.9 | 0.00 | 0.00 | 0.00 | 94 | 1011.4 |
| 20260906114903 | 73 | 89 | 0.0 | 0.9 | 0.00 | 0.00 | 0.00 | 94 | 1011.5 |
| 20260906114358 | 72 | 336 | 0.0 | 0.0 | 0.00 | 0.00 | 0.00 | 94 | 1011.6 |
| 20260906113853 | 72 | 304 | 0.0 | 0.0 | 0.00 | 0.00 | 0.00 | 94 | 1011.6 |
| 20260906113352 | 73 | 309 | 0.0 | 0.9 | 0.00 | 0.00 | 0.00 | 94 | 1011.4 |
| 20260906112848 | 73 | 333 | 0.0 | 0.9 | 0.00 | 0.00 | 0.00 | 95 | 1011.3 |
| 20260906112343 | 72 | 277 | 0.0 | 0.9 | 0.00 | 0.00 | 0.00 | 95 | 1011.6 |
| 20260906111838 | 72 | 89 | 0.0 | 0.9 | 0.00 | 0.00 | 0.00 | 95 | 1011.1 |
| 20260906111338 | 72 | 293 | 0.0 | 0.0 | 0.00 | 0.00 | 0.00 | 95 | 1011.3 |
| 20260906110833 | 72 | 62 | 0.0 | 0.0 | 0.00 | 0.00 | 0.00 | 95 | 1011.3 |
| 20260906110329 | 72 | 107 | 0.0 | 0.0 | 0.00 | 0.00 | 0.00 | 95 | 1011.2 |
| 20260906105828 | 72 | 72 | 0.0 | 0.0 | 0.00 | 0.00 | 0.00 | 95 | 1011.2 |
| 20260906105323 | 73 | 322 | 0.0 | 0.9 | 0.00 | 0.00 | 0.00 | 95 | 1011.1 |
| 20260906104819 | 73 | 235 | 0.0 | 0.0 | 0.00 | 0.00 | 0.00 | 95 | 1011.0 |
| 20260906104318 | 73 | 283 | 0.0 | 0.0 | 0.00 | 0.00 | 0.00 | 95 | 1011.0 |
| 20260906103816 | 73 | 73 | 0.0 | 0.0 | 0.00 | 0.00 | 0.00 | 95 | 1011.0 |
| 20260906103315 | 73 | 77 | 0.0 | 0.0 | 0.00 | 0.00 | 0.00 | 94 | 1010.8 |
| 20260906102811 | 73 | 349 | 0.0 | 0.0 | 0.00 | 0.00 | 0.00 | 94 | 1010.9 |
| 20260906102310 | 73 | 309 | 0.0 | 1.7 | 0.00 | 0.00 | 0.00 | 94 | 1010.8 |
| 20260906101805 | 73 | 89 | 0.0 | 0.0 | 0.00 | 0.00 | 0.00 | 94 | 1010.7 |
| 20260906101301 | 73 | 104 | 0.9 | 0.9 | 0.00 | 0.00 | 0.00 | 94 | 1010.7 |
| 20260906100756 | 73 | 339 | 0.0 | 0.9 | 0.00 | 0.00 | 0.00 | 94 | 1010.7 |
| 20260906100254 | 73 | 147 | 0.0 | 0.0 | 0.00 | 0.00 | 0.00 | 94 | 1010.7 |
| 20260906095750 | 74 | 94 | 0.0 | 2.6 | 0.00 | 0.00 | 0.00 | 94 | 1010.4 |
| 20260906095245 | 74 | 83 | 0.0 | 0.9 | 0.00 | 0.00 | 0.00 | 94 | 1010.7 |
| 20260906094745 | 74 | 76 | 0.0 | 0.0 | 0.00 | 0.00 | 0.00 | 94 | 1010.5 |
| 20260906094240 | 74 | 247 | 0.9 | 0.9 | 0.00 | 0.00 | 0.00 | 94 | 1010.4 |
| 20260906093736 | 74 | 244 | 0.0 | 0.9 | 0.00 | 0.00 | 0.00 | 94 | 1010.5 |
| 20260906093231 | 74 | 104 | 0.0 | 0.0 | 0.00 | 0.00 | 0.00 | 94 | 1010.3 |
| 20260906092726 | 74 | 212 | 0.0 | 0.9 | 0.00 | 0.00 | 0.00 | 94 | 1010.3 |
| 20260906092220 | 74 | 225 | 0.0 | 1.7 | 0.00 | 0.00 | 0.00 | 94 | 1010.1 |
| 20260906091717 | 74 | 269 | 0.0 | 1.7 | 0.00 | 0.00 | 0.00 | 94 | 1010.2 |
| 20260906091213 | 74 | 34 | 0.0 | 0.9 | 0.00 | 0.00 | 0.00 | 94 | 1010.1 |
| 20260906090709 | 74 | 88 | 0.0 | 0.9 | 0.00 | 0.00 | 0.00 | 94 | 1010.2 |
| 20260906090208 | 75 | 110 | 0.0 | 0.9 | 0.00 | 0.00 | 0.00 | 94 | 1010.3 |
| 20260906085707 | 75 | 245 | 0.0 | 0.9 | 0.00 | 0.00 | 0.00 | 94 | 1010.2 |
| 20260906085206 | 75 | 131 | 0.0 | 0.9 | 0.00 | 0.00 | 0.00 | 93 | 1010.2 |
| 20260906084701 | 75 | 284 | 0.0 | 2.6 | 0.00 | 0.00 | 0.00 | 94 | 1009.9 |
| 20260906084155 | 75 | 79 | 0.9 | 2.6 | 0.00 | 0.00 | 0.00 | 94 | 1010.3 |
| 20260906083650 | 75 | 74 | 0.9 | 1.7 | 0.00 | 0.00 | 0.00 | 95 | 1010.2 |
| 20260906083145 | 75 | 56 | 0.9 | 1.7 | 0.00 | 0.00 | 0.00 | 95 | 1010.2 |
| 20260906082641 | 75 | 102 | 0.0 | 0.0 | 0.00 | 0.00 | 0.00 | 95 | 1010.2 |
| 20260906082136 | 75 | 256 | 0.0 | 0.9 | 0.00 | 0.00 | 0.00 | 95 | 1010.4 |
| 20260906081632 | 75 | 284 | 0.0 | 0.9 | 0.00 | 0.00 | 0.00 | 95 | 1010.2 |
| 20260906081126 | 75 | 67 | 0.0 | 0.9 | 0.00 | 0.00 | 0.00 | 94 | 1010.2 |
| 20260906080623 | 75 | 269 | 0.0 | 0.9 | 0.00 | 0.00 | 0.00 | 94 | 1010.4 |
| 20260906080119 | 75 | 75 | 0.0 | 0.9 | 0.00 | 0.00 | 0.00 | 94 | 1010.4 |
| 20260906075613 | 76 | 308 | 0.9 | 1.7 | 0.00 | 0.00 | 0.00 | 94 | 1010.4 |
| 20260906075108 | 76 | 205 | 0.0 | 1.7 | 0.00 | 0.00 | 0.00 | 94 | 1010.6 |
| 20260906074603 | 76 | 62 | 0.0 | 0.0 | 0.00 | 0.00 | 0.00 | 93 | 1010.4 |
| 20260906074102 | 76 | 37 | 0.0 | 2.6 | 0.00 | 0.00 | 0.00 | 93 | 1010.2 |
| 20260906073557 | 76 | 293 | 0.0 | 0.9 | 0.00 | 0.00 | 0.00 | 93 | 1010.3 |
| 20260906073052 | 76 | 333 | 0.0 | 0.9 | 0.00 | 0.00 | 0.00 | 93 | 1010.2 |
| 20260906072547 | 76 | 245 | 0.0 | 1.7 | 0.00 | 0.00 | 0.00 | 93 | 1010.3 |
| 20260906072043 | 77 | 230 | 0.0 | 0.9 | 0.00 | 0.00 | 0.00 | 92 | 1010.4 |
| 20260906071539 | 77 | 54 | 0.9 | 1.7 | 0.00 | 0.00 | 0.00 | 92 | 1010.4 |
| 20260906071034 | 77 | 105 | 0.9 | 1.7 | 0.00 | 0.00 | 0.00 | 93 | 1010.5 |
| 20260906070531 | 77 | 299 | 0.0 | 0.0 | 0.00 | 0.00 | 0.00 | 92 | 1010.5 |
| 20260906070026 | 77 | 309 | 0.0 | 0.0 | 0.00 | 0.00 | 0.00 | 92 | 1010.9 |
| 20260906065525 | 77 | 269 | 0.0 | 0.0 | 0.00 | 0.00 | 0.00 | 92 | 1011.1 |
| 20260906065021 | 77 | 156 | 0.0 | 0.9 | 0.00 | 0.00 | 0.00 | 91 | 1011.1 |
| 20260906064516 | 77 | 333 | 0.0 | 0.0 | 0.00 | 0.00 | 0.00 | 91 | 1011.0 |
| 20260906064011 | 77 | 256 | 0.0 | 0.9 | 0.00 | 0.00 | 0.00 | 92 | 1011.0 |
| 20260906063507 | 77 | 284 | 0.0 | 0.9 | 0.00 | 0.00 | 0.00 | 91 | 1010.9 |
| 20260906063002 | 77 | 186 | 0.0 | 0.0 | 0.00 | 0.00 | 0.00 | 92 | 1010.9 |
| 20260906062457 | 78 | 44 | 0.9 | 1.7 | 0.00 | 0.00 | 0.00 | 93 | 1011.1 |
| 20260906061952 | 77 | 77 | 0.0 | 0.0 | 0.00 | 0.00 | 0.00 | 94 | 1011.1 |
| 20260906061447 | 77 | 243 | 0.0 | 1.7 | 0.00 | 0.00 | 0.00 | 94 | 1011.0 |
| 20260906060942 | 78 | 284 | 0.0 | 0.9 | 0.00 | 0.00 | 0.00 | 95 | 1011.2 |
| 20260906060439 | 78 | 72 | 0.0 | 0.9 | 0.00 | 0.00 | 0.00 | 96 | 1011.2 |
| 20260906055935 | 78 | 92 | 0.9 | 1.7 | 0.00 | 0.00 | 0.00 | 96 | 1011.2 |
| 20260906055431 | 78 | 131 | 0.0 | 0.9 | 0.00 | 0.00 | 0.00 | 96 | 1011.1 |
| 20260906054926 | 79 | 309 | 0.0 | 0.0 | 0.00 | 0.00 | 0.00 | 96 | 1011.2 |
| 20260906054421 | 79 | 217 | 0.0 | 0.0 | 0.00 | 0.00 | 0.00 | 95 | 1010.9 |
| 20260906053917 | 79 | 210 | 0.9 | 1.7 | 0.00 | 0.00 | 0.00 | 95 | 1011.2 |
| 20260906053412 | 79 | 217 | 0.0 | 0.9 | 0.00 | 0.00 | 0.00 | 95 | 1011.3 |
| 20260906052908 | 79 | 284 | 0.0 | 1.7 | 0.00 | 0.00 | 0.00 | 94 | 1011.3 |
| 20260906052404 | 79 | 276 | 0.9 | 0.9 | 0.00 | 0.00 | 0.00 | 94 | 1011.2 |
| 20260906051901 | 80 | 269 | 0.0 | 0.0 | 0.00 | 0.00 | 0.00 | 94 | 1011.1 |
| 20260906051401 | 80 | 220 | 0.0 | 0.9 | 0.00 | 0.00 | 0.00 | 94 | 1011.4 |
| 20260906050856 | 80 | 230 | 0.0 | 0.9 | 0.00 | 0.00 | 0.00 | 93 | 1011.1 |
| 20260906050351 | 80 | 255 | 0.0 | 0.9 | 0.00 | 0.00 | 0.00 | 93 | 1011.2 |
| 20260906045850 | 80 | 248 | 0.9 | 0.9 | 0.00 | 0.00 | 0.00 | 93 | 1011.2 |
| 20260906045344 | 80 | 27 | 0.0 | 0.9 | 0.00 | 0.00 | 0.00 | 93 | 1011.3 |
| 20260906044840 | 81 | 103 | 1.7 | 1.7 | 0.00 | 0.00 | 0.00 | 94 | 1011.2 |
| 20260906044340 | 81 | 206 | 1.7 | 1.7 | 0.00 | 0.00 | 0.00 | 93 | 1011.6 |
| 20260906043836 | 82 | 142 | 0.0 | 0.0 | 0.00 | 0.00 | 0.00 | 93 | 1011.7 |
| 20260906043332 | 82 | 89 | 1.7 | 1.7 | 0.00 | 0.00 | 0.00 | 92 | 1011.8 |
| 20260906042827 | 82 | 333 | 0.0 | 0.0 | 0.00 | 0.00 | 0.00 | 92 | 1011.9 |
| 20260906042326 | 82 | 124 | 0.0 | 0.0 | 0.00 | 0.00 | 0.00 | 92 | 1011.8 |
| 20260906041821 | 82 | 212 | 0.0 | 0.0 | 0.00 | 0.00 | 0.00 | 91 | 1011.8 |
| 20260906041317 | 82 | 28 | 0.0 | 1.7 | 0.00 | 0.00 | 0.00 | 91 | 1011.6 |
| 20260906040812 | 82 | 95 | 2.6 | 2.6 | 0.00 | 0.00 | 0.00 | 91 | 1011.7 |
| 20260906040307 | 82 | 127 | 0.0 | 0.0 | 0.00 | 0.00 | 0.00 | 91 | 1011.7 |
| 20260906035802 | 82 | 242 | 0.0 | 0.0 | 0.00 | 0.00 | 0.00 | 91 | 1011.8 |
| 20260906035258 | 83 | 84 | 0.0 | 2.6 | 0.00 | 0.00 | 0.00 | 91 | 1011.8 |
| 20260906034757 | 82 | 66 | 0.0 | 1.7 | 0.00 | 0.00 | 0.00 | 91 | 1011.7 |
| 20260906034252 | 82 | 336 | 1.7 | 2.6 | 0.00 | 0.00 | 0.00 | 92 | 1011.6 |
| 20260906033748 | 82 | 19 | 0.0 | 2.6 | 0.00 | 0.00 | 0.00 | 92 | 1011.5 |
| 20260906033247 | 82 | 19 | 0.0 | 2.6 | 0.00 | 0.00 | 0.00 | 92 | 1011.7 |
| 20260906032744 | 82 | 15 | 0.0 | 1.7 | 0.00 | 0.00 | 0.00 | 92 | 1011.6 |
| 20260906032243 | 82 | 5 | 0.9 | 2.6 | 0.00 | 0.00 | 0.00 | 91 | 1011.7 |
| 20260906031739 | 82 | 349 | 0.0 | 1.7 | 0.00 | 0.00 | 0.00 | 91 | 1011.6 |
| 20260906031235 | 82 | 357 | 0.9 | 1.7 | 0.00 | 0.00 | 0.00 | 91 | 1011.7 |
| 20260906030729 | 82 | 5 | 0.0 | 3.5 | 0.00 | 0.00 | 0.00 | 91 | 1011.8 |
| 20260906030224 | 82 | 39 | 0.0 | 2.6 | 0.00 | 0.00 | 0.00 | 91 | 1011.6 |
| 20260906025723 | 82 | 38 | 0.0 | 3.5 | 0.00 | 0.00 | 0.00 | 91 | 1011.4 |
| 20260906025218 | 83 | 69 | 0.9 | 2.6 | 0.00 | 0.00 | 0.00 | 90 | 1011.4 |
| 20260906024717 | 83 | 3 | 1.7 | 5.2 | 0.00 | 0.00 | 0.00 | 90 | 1011.5 |
| 20260906024216 | 82 | 341 | 2.6 | 5.2 | 0.00 | 0.00 | 0.00 | 90 | 1011.1 |
| 20260906023712 | 82 | 338 | 1.7 | 2.6 | 0.00 | 0.00 | 0.00 | 91 | 1011.1 |
| 20260906023207 | 82 | 1 | 3.5 | 3.5 | 0.00 | 0.00 | 0.00 | 91 | 1011.2 |
| 20260906022703 | 82 | 339 | 1.7 | 3.5 | 0.00 | 0.00 | 0.00 | 91 | 1011.1 |
| 20260906022158 | 82 | 337 | 1.7 | 2.6 | 0.00 | 0.00 | 0.00 | 91 | 1010.9 |
| 20260906021654 | 82 | 349 | 0.9 | 1.7 | 0.00 | 0.00 | 0.00 | 91 | 1010.7 |
| 20260906021152 | 82 | 28 | 0.0 | 0.9 | 0.00 | 0.00 | 0.00 | 90 | 1010.5 |
| 20260906020647 | 82 | 255 | 0.0 | 1.7 | 0.00 | 0.00 | 0.00 | 90 | 1010.8 |
| 20260906020142 | 82 | 44 | 0.0 | 0.0 | 0.00 | 0.00 | 0.00 | 90 | 1011.0 |
| 20260906015636 | 82 | 129 | 0.0 | 0.9 | 0.00 | 0.00 | 0.00 | 90 | 1010.9 |
| 20260906015134 | 82 | 142 | 0.0 | 1.7 | 0.00 | 0.00 | 0.00 | 89 | 1010.9 |
| 20260906014629 | 82 | 89 | 1.7 | 3.5 | 0.00 | 0.00 | 0.00 | 89 | 1010.6 |
| 20260906014125 | 82 | 88 | 2.6 | 2.6 | 0.00 | 0.00 | 0.00 | 89 | 1010.1 |
| 20260906013620 | 82 | 226 | 1.7 | 1.7 | 0.00 | 0.00 | 0.00 | 89 | 1009.6 |
| 20260906013116 | 83 | 251 | 0.0 | 1.7 | 0.00 | 0.00 | 0.00 | 88 | 1009.8 |
| 20260906012610 | 82 | 256 | 1.7 | 1.7 | 0.00 | 0.00 | 0.00 | 88 | 1010.0 |
| 20260906012105 | 83 | 255 | 0.0 | 0.0 | 0.00 | 0.00 | 0.00 | 88 | 1010.5 |
| 20260906011601 | 83 | 230 | 1.7 | 1.7 | 0.00 | 0.00 | 0.00 | 87 | 1010.6 |
| 20260906011101 | 83 | 40 | 1.7 | 3.5 | 0.00 | 0.00 | 0.00 | 87 | 1011.2 |
| 20260906010556 | 83 | 230 | 0.0 | 0.9 | 0.00 | 0.00 | 0.00 | 87 | 1011.0 |
| 20260906010052 | 83 | 112 | 0.0 | 3.5 | 0.00 | 0.00 | 0.00 | 87 | 1010.9 |
| 20260906005552 | 83 | 0 | 0.9 | 2.6 | 0.00 | 0.00 | 0.00 | 87 | 1011.1 |
| 20260906005051 | 83 | 45 | 0.0 | 2.6 | 0.00 | 0.00 | 0.00 | 87 | 1011.0 |
| 20260906004551 | 83 | 340 | 0.0 | 3.5 | 0.00 | 0.00 | 0.00 | 87 | 1010.9 |
| 20260906004045 | 83 | 330 | 0.9 | 3.5 | 0.00 | 0.00 | 0.00 | 87 | 1011.0 |
| 20260906003540 | 83 | 342 | 0.9 | 2.6 | 0.00 | 0.00 | 0.00 | 87 | 1011.3 |
| 20260906003036 | 83 | 323 | 1.7 | 2.6 | 0.00 | 0.00 | 0.00 | 87 | 1011.1 |
| 20260906002531 | 83 | 18 | 0.9 | 0.9 | 0.00 | 0.00 | 0.00 | 86 | 1011.1 |
| 20260906002026 | 83 | 315 | 0.0 | 1.7 | 0.00 | 0.00 | 0.00 | 86 | 1011.2 |
| 20260906001521 | 83 | 209 | 0.0 | 0.9 | 0.00 | 0.00 | 0.00 | 86 | 1011.4 |
| 20260906001015 | 83 | 269 | 0.0 | 0.9 | 0.00 | 0.00 | 0.00 | 86 | 1011.7 |
| 20260906000512 | 83 | 256 | 0.0 | 3.5 | 0.00 | 0.00 | 0.00 | 86 | 1011.5 |
| 20260906000006 | 84 | 316 | 1.7 | 1.7 | 0.00 | 0.00 | 0.00 | 86 | 1011.3 |
| 20260905235500 | 84 | 56 | 0.0 | 1.7 | 0.00 | 0.00 | 0.00 | 85 | 1011.5 |
| 20260905234955 | 84 | 356 | 0.0 | 1.7 | 0.00 | 0.00 | 0.00 | 85 | 1011.4 |
| 20260905234450 | 84 | 26 | 0.9 | 1.7 | 0.00 | 0.00 | 0.00 | 85 | 1011.3 |
| 20260905233944 | 84 | 237 | 0.9 | 1.7 | 0.00 | 0.00 | 0.00 | 85 | 1011.4 |
| 20260905233440 | 84 | 359 | 0.0 | 2.6 | 0.00 | 0.00 | 0.00 | 84 | 1011.4 |
| 20260905232939 | 85 | 7 | 0.0 | 1.7 | 0.00 | 0.00 | 0.00 | 85 | 1011.4 |
| 20260905232436 | 85 | 33 | 0.0 | 1.7 | 0.00 | 0.00 | 0.00 | 84 | 1011.5 |
| 20260905231931 | 85 | 279 | 0.9 | 3.5 | 0.00 | 0.00 | 0.00 | 83 | 1011.3 |
| 20260905231427 | 86 | 282 | 0.0 | 1.7 | 0.00 | 0.00 | 0.00 | 83 | 1011.5 |
| 20260905230923 | 86 | 311 | 0.0 | 1.7 | 0.00 | 0.00 | 0.00 | 82 | 1011.2 |
| 20260905230420 | 86 | 348 | 0.9 | 1.7 | 0.00 | 0.00 | 0.00 | 81 | 1011.2 |
| 20260905225914 | 87 | 37 | 1.7 | 2.6 | 0.00 | 0.00 | 0.00 | 80 | 1011.1 |
| 20260905225409 | 88 | 323 | 0.9 | 2.6 | 0.00 | 0.00 | 0.00 | 78 | 1011.1 |
| 20260905224904 | 89 | 268 | 0.9 | 1.7 | 0.00 | 0.00 | 0.00 | 77 | 1011.0 |
| 20260905224359 | 90 | 209 | 0.9 | 2.6 | 0.00 | 0.00 | 0.00 | 75 | 1011.2 |
| 20260905223854 | 91 | 256 | 0.0 | 2.6 | 0.00 | 0.00 | 0.00 | 73 | 1011.2 |
| 20260905223351 | 90 | 247 | 0.0 | 2.6 | 0.00 | 0.00 | 0.00 | 73 | 1011.1 |
| 20260905222846 | 91 | 226 | 2.6 | 2.6 | 0.00 | 0.00 | 0.00 | 71 | 1010.9 |
| 20260905222345 | 91 | 314 | 0.9 | 2.6 | 0.00 | 0.00 | 0.00 | 71 | 1010.9 |
| 20260905221841 | 91 | 259 | 1.7 | 2.6 | 0.00 | 0.00 | 0.00 | 71 | 1010.7 |
| 20260905221338 | 92 | 248 | 1.7 | 2.6 | 0.00 | 0.00 | 0.00 | 70 | 1010.9 |
| 20260905220833 | 92 | 264 | 0.0 | 2.6 | 0.00 | 0.00 | 0.00 | 71 | 1010.9 |
| 20260905220329 | 90 | 260 | 0.9 | 2.6 | 0.00 | 0.00 | 0.00 | 73 | 1010.9 |
| 20260905215828 | 92 | 231 | 1.7 | 1.7 | 0.00 | 0.00 | 0.00 | 70 | 1010.9 |
| 20260905215324 | 91 | 179 | 1.7 | 2.6 | 0.00 | 0.00 | 0.00 | 70 | 1011.0 |
| 20260905214821 | 91 | 108 | 0.0 | 1.7 | 0.00 | 0.00 | 0.00 | 71 | 1010.7 |
| 20260905214315 | 90 | 229 | 0.9 | 2.6 | 0.00 | 0.00 | 0.00 | 72 | 1010.9 |
| 20260905213810 | 90 | 266 | 1.7 | 3.5 | 0.00 | 0.00 | 0.00 | 73 | 1010.9 |
| 20260905213307 | 92 | 240 | 0.9 | 2.6 | 0.00 | 0.00 | 0.00 | 72 | 1010.8 |
| 20260905212801 | 91 | 357 | 0.0 | 3.5 | 0.00 | 0.00 | 0.00 | 73 | 1010.8 |
| 20260905212301 | 90 | 258 | 0.9 | 2.6 | 0.00 | 0.00 | 0.00 | 74 | 1010.8 |
| 20260905211755 | 90 | 243 | 2.6 | 3.5 | 0.00 | 0.00 | 0.00 | 74 | 1010.7 |
| 20260905211250 | 91 | 237 | 1.7 | 3.5 | 0.00 | 0.00 | 0.00 | 72 | 1010.8 |
| 20260905210748 | 92 | 269 | 0.0 | 2.6 | 0.00 | 0.00 | 0.00 | 71 | 1010.6 |
| 20260905210247 | 92 | 271 | 2.6 | 3.5 | 0.00 | 0.00 | 0.00 | 70 | 1010.5 |
| 20260905205746 | 91 | 298 | 0.0 | 3.5 | 0.00 | 0.00 | 0.00 | 71 | 1010.6 |
| 20260905205241 | 93 | 240 | 1.7 | 2.6 | 0.00 | 0.00 | 0.00 | 69 | 1010.6 |
| 20260905204740 | 93 | 287 | 1.7 | 2.6 | 0.00 | 0.00 | 0.00 | 69 | 1010.5 |
| 20260905204236 | 93 | 233 | 3.5 | 3.5 | 0.00 | 0.00 | 0.00 | 69 | 1010.3 |
| 20260905203735 | 93 | 239 | 3.5 | 4.3 | 0.00 | 0.00 | 0.00 | 69 | 1010.3 |
| 20260905203231 | 96 | 264 | 0.0 | 2.6 | 0.00 | 0.00 | 0.00 | 65 | 1010.3 |
| 20260905202726 | 95 | 30 | 1.7 | 4.3 | 0.00 | 0.00 | 0.00 | 65 | 1010.2 |
| 20260905202221 | 95 | 322 | 1.7 | 2.6 | 0.00 | 0.00 | 0.00 | 65 | 1010.4 |
| 20260905201716 | 94 | 246 | 1.7 | 2.6 | 0.00 | 0.00 | 0.00 | 67 | 1010.3 |
| 20260905201211 | 96 | 128 | 0.9 | 2.6 | 0.00 | 0.00 | 0.00 | 64 | 1010.2 |
| 20260905200706 | 96 | 359 | 1.7 | 2.6 | 0.00 | 0.00 | 0.00 | 64 | 1010.4 |
| 20260905200202 | 94 | 4 | 0.0 | 2.6 | 0.00 | 0.00 | 0.00 | 66 | 1010.3 |
| 20260905195700 | 95 | 225 | 2.6 | 3.5 | 0.00 | 0.00 | 0.00 | 66 | 1010.4 |
| 20260905195155 | 97 | 51 | 1.7 | 1.7 | 0.00 | 0.00 | 0.00 | 63 | 1010.4 |
| 20260905194650 | 97 | 331 | 0.9 | 3.5 | 0.00 | 0.00 | 0.00 | 62 | 1010.4 |
| 20260905194149 | 96 | 230 | 0.0 | 2.6 | 0.00 | 0.00 | 0.00 | 63 | 1010.6 |
| 20260905193638 | 95 | 253 | 1.7 | 2.6 | 0.00 | 0.00 | 0.00 | 64 | 1010.6 |
| 20260905193133 | 95 | 247 | 0.0 | 2.6 | 0.00 | 0.00 | 0.00 | 64 | 1010.7 |
| 20260905192629 | 96 | 244 | 0.9 | 1.7 | 0.00 | 0.00 | 0.00 | 64 | 1010.6 |
| 20260905192125 | 96 | 237 | 1.7 | 2.6 | 0.00 | 0.00 | 0.00 | 64 | 1010.8 |
| 20260905191624 | 95 | 301 | 2.6 | 2.6 | 0.00 | 0.00 | 0.00 | 65 | 1011.0 |
| 20260905191123 | 96 | 267 | 0.0 | 3.5 | 0.00 | 0.00 | 0.00 | 63 | 1011.0 |
| 20260905190621 | 95 | 257 | 1.7 | 2.6 | 0.00 | 0.00 | 0.00 | 65 | 1011.2 |
| 20260905190121 | 94 | 220 | 0.9 | 2.6 | 0.00 | 0.00 | 0.00 | 67 | 1011.3 |
| 20260905185620 | 96 | 290 | 0.0 | 4.3 | 0.00 | 0.00 | 0.00 | 63 | 1011.4 |
| 20260905185114 | 96 | 260 | 2.6 | 5.2 | 0.00 | 0.00 | 0.00 | 62 | 1011.5 |
| 20260905184609 | 95 | 328 | 1.7 | 4.3 | 0.00 | 0.00 | 0.00 | 63 | 1011.4 |
| 20260905184108 | 97 | 276 | 0.0 | 2.6 | 0.00 | 0.00 | 0.00 | 60 | 1011.4 |
| 20260905183607 | 95 | 289 | 0.0 | 2.6 | 0.00 | 0.00 | 0.00 | 61 | 1011.6 |
| 20260905183103 | 95 | 345 | 2.6 | 5.2 | 0.00 | 0.00 | 0.00 | 62 | 1012.0 |
| 20260905182602 | 94 | 8 | 0.9 | 4.3 | 0.00 | 0.00 | 0.00 | 64 | 1011.9 |
| 20260905182057 | 91 | 315 | 1.7 | 3.5 | 0.00 | 0.00 | 0.00 | 66 | 1011.9 |
| 20260905181557 | 92 | 44 | 2.6 | 2.6 | 0.00 | 0.00 | 0.00 | 68 | 1011.8 |
| 20260905181056 | 93 | 262 | 0.0 | 2.6 | 0.00 | 0.00 | 0.00 | 65 | 1012.0 |
| 20260905180551 | 95 | 246 | 2.6 | 2.6 | 0.00 | 0.00 | 0.00 | 64 | 1012.1 |
| 20260905180046 | 94 | 250 | 1.7 | 2.6 | 0.00 | 0.00 | 0.00 | 65 | 1011.9 |
| 20260905175545 | 93 | 233 | 2.6 | 2.6 | 0.00 | 0.00 | 0.00 | 66 | 1011.9 |
| 20260905175041 | 95 | 282 | 4.3 | 4.3 | 0.00 | 0.00 | 0.00 | 64 | 1012.2 |
| 20260905174536 | 94 | 289 | 2.6 | 5.2 | 0.00 | 0.00 | 0.00 | 59 | 1012.1 |
| 20260905174032 | 95 | 23 | 1.7 | 5.2 | 0.00 | 0.00 | 0.00 | 58 | 1012.3 |
| 20260905173528 | 93 | 11 | 1.7 | 2.6 | 0.00 | 0.00 | 0.00 | 62 | 1012.4 |
| 20260905173023 | 93 | 20 | 2.6 | 4.3 | 0.00 | 0.00 | 0.00 | 61 | 1012.6 |
| 20260905172522 | 95 | 294 | 0.0 | 3.5 | 0.00 | 0.00 | 0.00 | 56 | 1012.8 |
| 20260905172017 | 93 | 262 | 0.9 | 5.2 | 0.00 | 0.00 | 0.00 | 59 | 1012.8 |
| 20260905171514 | 94 | 119 | 1.7 | 3.5 | 0.00 | 0.00 | 0.00 | 58 | 1012.7 |
| 20260905171009 | 93 | 108 | 1.7 | 3.5 | 0.00 | 0.00 | 0.00 | 61 | 1012.6 |
| 20260905170506 | 94 | 305 | 1.7 | 4.3 | 0.00 | 0.00 | 0.00 | 59 | 1012.8 |
| 20260905170000 | 97 | 336 | 2.6 | 2.6 | 0.00 | 0.00 | 0.00 | 56 | 1012.9 |
| 20260905165455 | 94 | 27 | 3.5 | 3.5 | 0.00 | 0.00 | 0.00 | 60 | 1012.8 |
| 20260905164949 | 92 | 233 | 0.0 | 4.3 | 0.00 | 0.00 | 0.00 | 62 | 1013.1 |
| 20260905164444 | 93 | 16 | 2.6 | 4.3 | 0.00 | 0.00 | 0.00 | 60 | 1013.1 |
| 20260905163939 | 92 | 126 | 0.9 | 2.6 | 0.00 | 0.00 | 0.00 | 63 | 1013.3 |
| 20260905163436 | 92 | 0 | 2.6 | 6.1 | 0.00 | 0.00 | 0.00 | 61 | 1013.3 |
| 20260905162931 | 91 | 133 | 2.6 | 3.5 | 0.00 | 0.00 | 0.00 | 64 | 1013.5 |
| 20260905162426 | 93 | 249 | 0.0 | 0.9 | 0.00 | 0.00 | 0.00 | 64 | 1013.7 |
| 20260905161921 | 94 | 236 | 1.7 | 1.7 | 0.00 | 0.00 | 0.00 | 63 | 1013.7 |
| 20260905161420 | 93 | 18 | 2.6 | 4.3 | 0.00 | 0.00 | 0.00 | 64 | 1013.8 |
| 20260905160918 | 93 | 313 | 0.9 | 1.7 | 0.00 | 0.00 | 0.00 | 62 | 1013.9 |
| 20260905160412 | 92 | 314 | 2.6 | 3.5 | 0.00 | 0.00 | 0.00 | 64 | 1013.9 |
| 20260905155906 | 91 | 29 | 4.3 | 4.3 | 0.00 | 0.00 | 0.00 | 66 | 1014.0 |
| 20260905155401 | 90 | 39 | 3.5 | 5.2 | 0.00 | 0.00 | 0.00 | 68 | 1014.0 |
| 20260905154900 | 90 | 15 | 1.7 | 4.3 | 0.00 | 0.00 | 0.00 | 68 | 1014.0 |
| 20260905154355 | 91 | 13 | 2.6 | 4.3 | 0.00 | 0.00 | 0.00 | 67 | 1014.1 |
| 20260905153851 | 91 | 21 | 4.3 | 6.1 | 0.00 | 0.00 | 0.00 | 66 | 1014.3 |
| 20260905153347 | 92 | 46 | 2.6 | 3.5 | 0.00 | 0.00 | 0.00 | 66 | 1014.4 |
| 20260905152847 | 92 | 46 | 2.6 | 3.5 | 0.00 | 0.00 | 0.00 | 66 | 1014.2 |
| 20260905152346 | 90 | 29 | 3.5 | 3.5 | 0.00 | 0.00 | 0.00 | 70 | 1014.2 |
| 20260905151841 | 90 | 29 | 3.5 | 3.5 | 0.00 | 0.00 | 0.00 | 70 | 1014.1 |
| 20260905151337 | 90 | 26 | 2.6 | 3.5 | 0.00 | 0.00 | 0.00 | 70 | 1014.3 |
| 20260905150837 | 90 | 26 | 2.6 | 3.5 | 0.00 | 0.00 | 0.00 | 70 | 1014.3 |
| 20260905150331 | 89 | 16 | 5.2 | 5.2 | 0.00 | 0.00 | 0.00 | 72 | 1014.3 |
| 20260905145828 | 90 | 79 | 1.7 | 2.6 | 0.00 | 0.00 | 0.00 | 70 | 1014.3 |
| 20260905145323 | 89 | 92 | 0.9 | 2.6 | 0.00 | 0.00 | 0.00 | 72 | 1014.4 |
| 20260905144821 | 88 | 235 | 0.0 | 1.7 | 0.00 | 0.00 | 0.00 | 72 | 1014.3 |
| 20260905144317 | 87 | 296 | 1.7 | 5.2 | 0.00 | 0.00 | 0.00 | 74 | 1014.5 |
| 20260905143816 | 86 | 11 | 0.0 | 0.9 | 0.00 | 0.00 | 0.00 | 77 | 1014.3 |
| 20260905143311 | 87 | 354 | 0.0 | 1.7 | 0.00 | 0.00 | 0.00 | 77 | 1014.4 |
| 20260905142810 | 87 | 354 | 0.0 | 1.7 | 0.00 | 0.00 | 0.00 | 77 | 1014.2 |
| 20260905142306 | 89 | 56 | 3.5 | 4.3 | 0.00 | 0.00 | 0.00 | 74 | 1014.5 |
| 20260905141759 | 88 | 314 | 4.3 | 4.3 | 0.00 | 0.00 | 0.00 | 74 | 1014.3 |
| 20260905141255 | 88 | 19 | 2.6 | 3.5 | 0.00 | 0.00 | 0.00 | 75 | 1014.3 |
| 20260905140745 | 87 | 29 | 3.5 | 3.5 | 0.00 | 0.00 | 0.00 | 78 | 1014.2 |
| 20260905140245 | 87 | 36 | 1.7 | 1.7 | 0.00 | 0.00 | 0.00 | 78 | 1014.1 |
| 20260905135743 | 87 | 342 | 0.0 | 4.3 | 0.00 | 0.00 | 0.00 | 77 | 1014.3 |
| 20260905135239 | 83 | 71 | 0.9 | 1.7 | 0.00 | 0.00 | 0.00 | 87 | 1014.3 |
| 20260905134739 | 83 | 71 | 0.9 | 1.7 | 0.00 | 0.00 | 0.00 | 87 | 1014.4 |
| 20260905134233 | 83 | 71 | 0.9 | 1.7 | 0.00 | 0.00 | 0.00 | 87 | 1014.3 |
| 20260905133728 | 83 | 71 | 0.9 | 1.7 | 0.00 | 0.00 | 0.00 | 87 | 1014.5 |
| 20260905133223 | 83 | 71 | 0.9 | 1.7 | 0.00 | 0.00 | 0.00 | 87 | 1014.5 |
| 20260905132722 | 81 | 85 | 2.6 | 2.6 | 0.00 | 0.00 | 0.00 | 92 | 1014.5 |
| 20260905132218 | 81 | 85 | 2.6 | 2.6 | 0.00 | 0.00 | 0.00 | 92 | 1014.5 |
| 20260905131713 | 81 | 85 | 2.6 | 2.6 | 0.00 | 0.00 | 0.00 | 92 | 1014.6 |
| 20260905131208 | 81 | 85 | 2.6 | 2.6 | 0.00 | 0.00 | 0.00 | 92 | 1014.8 |
| 20260905130702 | 81 | 21 | 2.6 | 4.3 | 0.00 | 0.00 | 0.00 | 93 | 1014.6 |
| 20260905130156 | 79 | 27 | 3.5 | 3.5 | 0.00 | 0.00 | 0.00 | 98 | 1014.6 |
| 20260905125656 | 79 | 27 | 3.5 | 3.5 | 0.00 | 0.00 | 0.00 | 98 | 1014.5 |
| 20260905125152 | 79 | 27 | 3.5 | 3.5 | 0.00 | 0.00 | 0.00 | 98 | 1014.5 |
| 20260905124648 | 79 | 27 | 3.5 | 3.5 | 0.00 | 0.00 | 0.00 | 98 | 1014.6 |
| 20260905124143 | 79 | 27 | 3.5 | 3.5 | 0.00 | 0.00 | 0.00 | 98 | 1014.5 |
| 20260905123633 | 79 | 27 | 3.5 | 3.5 | 0.00 | 0.00 | 0.00 | 98 | 1014.4 |